This demonstration page uses our WeatherBlox Daily Observations layout. Learn more.

Left ArrowRight Arrow

36.17497, -115.13722

Hourly Observations for March 3, 2016

Temp ( °F °C ) Dew Point ( °F °C ) Humidity (%) Winds ( mph kmh ) Pressure ( in mb ) Visibility ( mi km ) Precip ( " mm )
12:53 am 00:53 Clear 58 14.4 26 -3.3 29 29 NNW 3 6 30.04 1017 10 16.0934 0 0
1:53 am 01:53 Clear 57 13.9 27 -2.8 32 32 NNW 5 7 30.03 1017 10 16.0934 0 0
2:53 am 02:53 Clear 56 13.3 26 -3.3 32 32 N 5 7 30.03 1017 10 16.0934 0 0
3:53 am 03:53 Clear 55 12.8 25 -3.9 31 31 NNW 7 11 30.04 1017 10 16.0934 0 0
4:53 am 04:53 Clear 55 12.8 27 -2.8 34 34 NW 3 6 30.04 1017 10 16.0934 0 0
5:53 am 05:53 Clear 54 12.2 29 -1.7 38 38 Calm 30.05 1018 10 16.0934 0 0
6:53 am 06:53 Sunny 56 13.3 29 -1.7 36 36 W 3 6 30.06 1018 10 16.0934 0 0
7:53 am 07:53 Sunny 61 16.1 26 -3.3 26 26 SSE 3 6 30.07 1018 10 16.0934 0 0
8:53 am 08:53 Sunny 64 17.8 26 -3.3 24 24 ESE 6 9 30.08 1019 10 16.0934 0 0
9:53 am 09:53 Sunny 67 19.4 26 -3.3 21 21 SE 7 11 30.07 1018 10 16.0934 0 0
10:53 am 10:53 Sunny 70 21.1 24 -4.4 18 18 ESE 7 11 30.06 1018 10 16.0934 0 0
11:53 am 11:53 Sunny 73 22.8 22 -5.6 15 15 Calm 30.04 1017 10 16.0934 0 0
12:53 pm 12:53 Sunny 76 24.4 20 -6.7 12 12 SE 6 9 30 1016 10 16.0934 0 0
1:53 pm 13:53 Sunny 79 26.1 18 -7.8 10 10 VRB 7 11 29.96 1015 10 16.0934 0 0
2:53 pm 14:53 Sunny 79 26.1 18 -7.8 10 10 ENE 8 13 29.95 1014 10 16.0934 0 0
3:53 pm 15:53 Sunny 78 25.6 17 -8.3 10 10 ESE 8 13 29.94 1014 10 16.0934 0 0
4:53 pm 16:53 Sunny 78 25.6 15 -9.4 9 9 S 13 20 29.93 1014 10 16.0934 0 0
5:53 pm 17:53 Clear 77 25 6 -14.4 6 6 SSW 10 17 29.94 1014 10 16.0934 0 0
6:53 pm 18:53 Clear 74 23.3 11 -11.7 9 9 SSW 9 15 29.95 1014 10 16.0934 0 0
7:53 pm 19:53 Clear 73 22.8 14 -10 10 10 SW 14 22 29.94 1014 10 16.0934 0 0
8:53 pm 20:53 Clear 72 22.2 16 -8.9 12 12 W 8 13 29.95 1014 10 16.0934 0 0
9:53 pm 21:53 Clear 68 20 20 -6.7 16 16 N 5 7 29.96 1015 10 16.0934 0 0
10:53 pm 22:53 Clear 66 18.9 20 -6.7 17 17 Calm 29.96 1015 10 16.0934 0 0
11:53 pm 23:53 Clear 62 16.7 21 -6.1 21 21 NW 3 6 29.96 1015 10 16.0934 0 0

Powered by AerisWeather